Weather History for KIIY - January, 2013

Change the Weather History Date:

Thursday, January 24, 2013

  Actual Average (KAHN) Record (KAHN)
Temperature  
Mean Temperature 48 °F 44 °F  
Max Temperature 60 °F 54 °F 78 °F (1927)
Min Temperature 37 °F 33 °F 4 °F (1963)
Degree Days  
Heating Degree Days 16 21  
Month to date heating degree days 523  
Since 1 July heating degree days 1613  
Moisture  
Dew Point 27 °F    
Average Humidity 44    
Maximum Humidity 71    
Minimum Humidity 13    
Precipitation  
Precipitation 0.00 in 0.14 in 3.15 in (1885)
Month to date precipitation 3.06  
Year to date precipitation 3.06  
Snow  
Snow 0.00 in 0.00 in 0.00 in (2002)
Month to date snowfall 1.1  
Since 1 July snowfall 1.2  
Snow Depth -    
Sea Level Pressure  
Sea Level Pressure 30.21 in    
Wind  
Wind Speed 10 mph (WNW)    
Max Wind Speed 17 mph    
Max Gust Speed 25 mph    
Visibility 10 miles    
Events      
T = Trace of Precipitation, MM = Missing Value Source: NWS Daily Summary

Daily Weather History Graph

Daily Weather History Graph

Search for Another Location

Airport or City:

Trip Planner

Search our weather history database for the weather conditions in past years. The results will help you decide how hot, cold, wet, or windy it might be!

Date:

Astronomy

Jan. 24, 2013 Rise Set
Actual Time 7:32 AM EST 5:54 PM EST
Civil Twilight 7:06 AM EST 6:21 PM EST
Nautical Twilight 6:35 AM EST 6:51 PM EST
Astronomical Twilight 6:06 AM EST 7:21 PM EST
Moon 3:57 PM EST (1/24) 5:27 AM EST (1/24)
Length of Visible Light 11h 15m
Length of Day
10h 22m
Waxing Gibbous, 94% of the Moon is Illuminated
Jan 24
Waxing Gibbous
Jan 26
Full
Feb 3
Last Quarter
Feb 10
New
Feb 17
First Quarter

Hourly Weather History & Observations

Time (EST) Temp. Windchill Dew Point Humidity Pressure Visibility Wind Dir Wind Speed Gust Speed Precip Events Conditions
12:15 AM 51.8 °F - 35.6 °F 54% 30.15 in 10.0 mi West 10.4 mph - N/A   Mostly Cloudy
12:35 AM 53.6 °F - 37.4 °F 54% 30.15 in 10.0 mi West 10.4 mph 20.7 mph N/A   Scattered Clouds
12:55 AM 53.6 °F - 37.4 °F 54% 30.14 in 10.0 mi West 11.5 mph 17.3 mph N/A   Scattered Clouds
1:15 AM 53.6 °F - 37.4 °F 54% 30.14 in 10.0 mi WSW 15.0 mph 19.6 mph N/A   Mostly Cloudy
1:35 AM 53.6 °F - 37.4 °F 54% 30.14 in 10.0 mi West 10.4 mph 16.1 mph N/A   Overcast
1:55 AM 51.8 °F - 35.6 °F 54% 30.14 in 10.0 mi West 8.1 mph - N/A   Mostly Cloudy
2:15 AM 51.8 °F - 35.6 °F 54% 30.13 in 10.0 mi West 8.1 mph - N/A   Clear
2:35 AM 51.8 °F - 35.6 °F 54% 30.13 in 10.0 mi WSW 8.1 mph - N/A   Scattered Clouds
2:55 AM 50.0 °F - 35.6 °F 58% 30.12 in 10.0 mi WSW 9.2 mph - N/A   Scattered Clouds
3:15 AM 48.2 °F - 35.6 °F 62% 30.12 in 10.0 mi WSW 8.1 mph - N/A   Clear
3:35 AM 46.4 °F 42.9 °F 35.6 °F 66% 30.12 in 10.0 mi WSW 6.9 mph - N/A   Clear
3:55 AM 46.4 °F 42.9 °F 35.6 °F 66% 30.11 in 10.0 mi West 6.9 mph - N/A   Clear
4:15 AM 46.4 °F 42.4 °F 35.6 °F 66% 30.11 in 10.0 mi West 8.1 mph - N/A   Scattered Clouds
4:35 AM 48.2 °F - 35.6 °F 62% 30.10 in 10.0 mi West 8.1 mph - N/A   Mostly Cloudy
4:55 AM 48.2 °F - 35.6 °F 62% 30.10 in 10.0 mi West 9.2 mph 16.1 mph N/A   Scattered Clouds
5:15 AM 48.2 °F - 37.4 °F 66% 30.11 in 10.0 mi West 10.4 mph - N/A   Clear
5:35 AM 48.2 °F - 37.4 °F 66% 30.09 in 10.0 mi WSW 9.2 mph - N/A   Clear
5:55 AM 46.4 °F 41.9 °F 37.4 °F 71% 30.10 in 10.0 mi West 9.2 mph 16.1 mph N/A   Clear
6:15 AM 46.4 °F 41.5 °F 37.4 °F 71% 30.10 in 10.0 mi West 10.4 mph - N/A   Clear
6:35 AM 48.2 °F - 37.4 °F 66% 30.10 in 10.0 mi West 9.2 mph 16.1 mph N/A   Clear
6:55 AM 46.4 °F 41.5 °F 37.4 °F 71% 30.12 in 10.0 mi West 10.4 mph - N/A   Clear
7:15 AM 48.2 °F - 37.4 °F 66% 30.13 in 10.0 mi West 11.5 mph 16.1 mph N/A   Clear
7:35 AM 48.2 °F - 37.4 °F 66% 30.13 in 10.0 mi West 10.4 mph 16.1 mph N/A   Clear
7:55 AM 48.2 °F - 37.4 °F 66% 30.13 in 10.0 mi West 10.4 mph 16.1 mph N/A   Clear
8:15 AM 48.2 °F - 37.4 °F 66% 30.14 in 10.0 mi West 11.5 mph - N/A   Clear
8:35 AM 51.8 °F - 39.2 °F 62% 30.14 in 10.0 mi West 10.4 mph 21.9 mph N/A   Clear
8:55 AM 51.8 °F - 37.4 °F 58% 30.16 in 10.0 mi West 12.7 mph 18.4 mph N/A   Clear
9:15 AM 53.6 °F - 39.2 °F 58% 30.16 in 10.0 mi West 12.7 mph 18.4 mph N/A   Clear
9:35 AM 53.6 °F - 37.4 °F 54% 30.18 in 10.0 mi West 12.7 mph 19.6 mph N/A   Clear
9:55 AM 53.6 °F - 35.6 °F 51% 30.19 in 10.0 mi WNW 8.1 mph 17.3 mph N/A   Clear
10:15 AM 53.6 °F - 33.8 °F 47% 30.20 in 10.0 mi WNW 12.7 mph 24.2 mph N/A   Clear
10:35 AM 55.4 °F - 32.0 °F 41% 30.20 in 10.0 mi WNW 12.7 mph 17.3 mph N/A   Clear
10:55 AM 55.4 °F - 30.2 °F 38% 30.21 in 10.0 mi WNW 13.8 mph 20.7 mph N/A   Clear
11:15 AM 59.0 °F - 32.0 °F 36% 30.20 in 10.0 mi WNW 11.5 mph 18.4 mph N/A   Clear
11:35 AM 59.0 °F - 30.2 °F 34% 30.19 in 10.0 mi WNW 12.7 mph 21.9 mph N/A   Clear
11:55 AM 59.0 °F - 28.4 °F 31% 30.20 in 10.0 mi West 13.8 mph 24.2 mph N/A   Clear
12:15 PM 59.0 °F - 26.6 °F 29% 30.19 in 10.0 mi WNW 13.8 mph 23.0 mph N/A   Clear
12:35 PM 59.0 °F - 26.6 °F 29% 30.20 in 10.0 mi West 13.8 mph 18.4 mph N/A   Clear
12:55 PM 59.0 °F - 23.0 °F 25% 30.20 in 10.0 mi West 15.0 mph 21.9 mph N/A   Clear
1:15 PM 60.8 °F - 21.2 °F 22% 30.19 in 10.0 mi West 17.3 mph 25.3 mph N/A   Clear
4:35 PM 59.0 °F - 17.6 °F 20% 30.23 in 10.0 mi NW 6.9 mph - N/A   Clear
4:55 PM 59.0 °F - 17.6 °F 20% 30.24 in 10.0 mi WNW 6.9 mph - N/A   Clear
5:15 PM 59.0 °F - 14.0 °F 17% 30.24 in 10.0 mi NW 5.8 mph - N/A   Clear
5:35 PM 55.4 °F - 5.0 °F 13% 30.26 in 10.0 mi NNW 5.8 mph - N/A   Clear
5:55 PM 53.6 °F - 6.8 °F 15% 30.26 in 10.0 mi NW 3.5 mph - N/A   Clear
6:15 PM 51.8 °F - 10.4 °F 19% 30.28 in 10.0 mi Calm Calm - N/A   Clear
6:35 PM 46.4 °F 44.3 °F 15.8 °F 29% 30.29 in 10.0 mi NNW 4.6 mph - N/A   Clear
6:55 PM 46.4 °F 45.2 °F 14.0 °F 27% 30.29 in 10.0 mi NNW 3.5 mph - N/A   Clear
7:15 PM 44.6 °F 41.4 °F 12.2 °F 27% 30.30 in 10.0 mi NNW 5.8 mph - N/A   Clear
7:35 PM 44.6 °F 42.2 °F 6.8 °F 21% 30.32 in 10.0 mi North 4.6 mph - N/A   Clear
7:55 PM 44.6 °F 43.1 °F 8.6 °F 23% 30.33 in 10.0 mi North 3.5 mph - N/A   Clear
8:15 PM 42.8 °F - 12.2 °F 29% 30.33 in 10.0 mi Calm Calm - N/A   Clear
8:35 PM 41.0 °F 35.8 °F 12.2 °F 31% 30.34 in 10.0 mi NE 8.1 mph - N/A   Clear
8:55 PM 42.8 °F 37.5 °F 14.0 °F 31% 30.34 in 10.0 mi East 9.2 mph - N/A   Clear
9:15 PM 42.8 °F 37.5 °F 14.0 °F 31% 30.35 in 10.0 mi East 9.2 mph - N/A   Clear
9:35 PM 42.8 °F 36.2 °F 15.8 °F 34% 30.36 in 10.0 mi East 12.7 mph 23.0 mph N/A   Clear
9:55 PM 41.0 °F 34.3 °F 14.0 °F 33% 30.37 in 10.0 mi East 11.5 mph 17.3 mph N/A   Clear
10:15 PM 41.0 °F 35.2 °F 14.0 °F 33% 30.39 in 10.0 mi ENE 9.2 mph 16.1 mph N/A   Clear
10:35 PM 39.2 °F 32.5 °F 10.4 °F 31% 30.40 in 10.0 mi East 10.4 mph 20.7 mph N/A   Clear
11:15 PM 37.4 °F 30.8 °F 10.4 °F 33% 30.41 in 10.0 mi East 9.2 mph 19.6 mph N/A   Clear
11:35 PM 37.4 °F 30.3 °F 10.4 °F 33% 30.41 in 10.0 mi ENE 10.4 mph - N/A   Clear
11:55 PM 37.4 °F 31.4 °F 10.4 °F 33% 30.41 in 10.0 mi ENE 8.1 mph - N/A   Clear